Time,TemperatureF,DewpointF,PressureIn,WindDirection,WindDirectionDegrees,WindSpeedMPH,WindSpeedGustMPH,Humidity,HourlyPrecipIn,Conditions,Clouds,dailyrainin,SoftwareType,DateUTC
2013-11-08 00:00:00,41.1,25.7,30.09,WSW,252,0.0,4.0,54,0.00,,---,0.00,VWS V14.00,2013-11-08 05:00:00,
2013-11-08 00:03:00,42.4,26.0,30.08,SW,227,0.0,4.0,52,0.00,,---,0.06,VWS V14.00,2013-11-08 05:03:00,
2013-11-08 00:08:00,42.3,25.9,30.08,SW,227,0.0,0.0,52,0.00,,---,0.00,VWS V14.00,2013-11-08 05:08:00,
2013-11-08 00:13:00,42.3,25.9,30.08,SW,227,0.0,5.0,52,0.00,,---,0.00,VWS V14.00,2013-11-08 05:13:00,
2013-11-08 00:18:00,42.3,25.5,30.08,SW,227,0.0,5.0,51,0.00,,---,0.00,VWS V14.00,2013-11-08 05:18:00,
2013-11-08 00:23:00,42.2,25.4,30.09,SW,227,0.0,5.0,51,0.00,,---,0.00,VWS V14.00,2013-11-08 05:23:00,
2013-11-08 00:28:00,42.0,25.2,30.09,SW,227,0.0,5.0,51,0.00,,---,0.00,VWS V14.00,2013-11-08 05:28:00,
2013-11-08 00:30:00,40.8,26.3,30.09,West,268,2.0,7.0,56,0.00,,---,0.00,VWS V14.00,2013-11-08 05:30:00,
2013-11-08 00:33:00,41.9,26.0,30.09,SW,227,0.0,5.0,53,0.00,,---,0.00,VWS V14.00,2013-11-08 05:33:00,
2013-11-08 00:38:00,41.6,25.8,30.09,SW,227,0.0,0.0,53,0.00,,---,0.00,VWS V14.00,2013-11-08 05:38:00,
2013-11-08 00:43:00,41.4,25.6,30.09,SW,227,0.0,0.0,53,0.00,,---,0.00,VWS V14.00,2013-11-08 05:43:00,
2013-11-08 00:48:00,41.1,25.3,30.09,WSW,252,0.0,4.0,53,0.00,,---,0.00,VWS V14.00,2013-11-08 05:48:00,
2013-11-08 00:53:00,41.1,25.3,30.09,WSW,252,0.0,4.0,53,0.00,,---,0.00,VWS V14.00,2013-11-08 05:53:00,
2013-11-08 00:59:00,41.1,25.7,30.09,WSW,252,0.0,4.0,54,0.00,,---,0.00,VWS V14.00,2013-11-08 05:59:00,
2013-11-08 01:00:00,42.3,28.2,30.08,West,265,3.0,12.0,57,0.00,,---,0.00,VWS V14.00,2013-11-08 06:00:00,
2013-11-08 01:04:00,41.1,25.7,30.09,WSW,252,0.0,4.0,54,0.00,,---,0.00,VWS V14.00,2013-11-08 06:04:00,
2013-11-08 01:09:00,41.0,25.6,30.09,WSW,252,0.0,0.0,54,0.00,,---,0.00,VWS V14.00,2013-11-08 06:09:00,
2013-11-08 01:14:00,41.0,26.1,30.09,WSW,252,0.0,0.0,55,0.00,,---,0.00,VWS V14.00,2013-11-08 06:14:00,
2013-11-08 01:19:00,40.9,26.4,30.09,WSW,252,0.0,0.0,56,0.00,,---,0.00,VWS V14.00,2013-11-08 06:19:00,
2013-11-08 01:24:00,40.7,26.2,30.09,WSW,252,0.0,3.0,56,0.00,,---,0.00,VWS V14.00,2013-11-08 06:24:00,
2013-11-08 01:29:00,40.6,26.1,30.09,West,260,2.0,6.0,56,0.00,,---,0.00,VWS V14.00,2013-11-08 06:29:00,
2013-11-08 01:30:00,42.4,28.3,30.09,West,272,6.0,11.0,57,0.00,,---,0.00,VWS V14.00,2013-11-08 06:30:00,
2013-11-08 01:34:00,40.6,26.1,30.09,West,268,4.0,7.0,56,0.00,,---,0.00,VWS V14.00,2013-11-08 06:34:00,
2013-11-08 01:39:00,40.9,26.9,30.09,West,268,0.0,4.0,57,0.00,,---,0.00,VWS V14.00,2013-11-08 06:39:00,
2013-11-08 01:44:00,41.3,27.2,30.09,West,269,5.0,9.0,57,0.00,,---,0.00,VWS V14.00,2013-11-08 06:44:00,
2013-11-08 01:49:00,41.7,27.6,30.08,WSW,257,4.0,12.0,57,0.00,,---,0.00,VWS V14.00,2013-11-08 06:49:00,
2013-11-08 01:54:00,42.0,27.9,30.08,West,263,2.0,12.0,57,0.00,,---,0.00,VWS V14.00,2013-11-08 06:54:00,
2013-11-08 01:59:00,42.1,28.0,30.09,West,261,7.0,12.0,57,0.00,,---,0.00,VWS V14.00,2013-11-08 06:59:00,
2013-11-08 02:00:00,42.5,28.8,30.08,WSW,251,4.0,12.0,58,0.00,,---,0.00,VWS V14.00,2013-11-08 07:00:00,
2013-11-08 02:04:00,42.2,28.1,30.09,West,265,4.0,12.0,57,0.00,,---,0.00,VWS V14.00,2013-11-08 07:04:00,
2013-11-08 02:09:00,42.4,28.3,30.08,WSW,258,5.0,11.0,57,0.00,,---,0.00,VWS V14.00,2013-11-08 07:09:00,
2013-11-08 02:14:00,42.6,28.5,30.08,West,271,0.0,11.0,57,0.00,,---,0.00,VWS V14.00,2013-11-08 07:14:00,
2013-11-08 02:19:00,42.5,28.4,30.09,WSW,254,3.0,11.0,57,0.00,,---,0.00,VWS V14.00,2013-11-08 07:19:00,
2013-11-08 02:24:00,42.4,28.3,30.09,West,261,7.0,11.0,57,0.00,,---,0.00,VWS V14.00,2013-11-08 07:24:00,
2013-11-08 02:29:00,42.4,28.3,30.08,West,259,1.0,11.0,57,0.00,,---,0.00,VWS V14.00,2013-11-08 07:29:00,
2013-11-08 02:30:00,42.6,28.9,30.08,West,263,6.0,15.0,58,0.00,,---,0.00,VWS V14.00,2013-11-08 07:30:00,
2013-11-08 02:34:00,42.3,28.2,30.09,West,265,9.0,11.0,57,0.00,,---,0.00,VWS V14.00,2013-11-08 07:34:00,
2013-11-08 02:39:00,42.4,28.3,30.09,WSW,248,5.0,7.0,57,0.00,,---,0.00,VWS V14.00,2013-11-08 07:39:00,
2013-11-08 02:44:00,42.5,28.4,30.08,West,266,0.0,10.0,57,0.00,,---,0.00,VWS V14.00,2013-11-08 07:44:00,
2013-11-08 02:49:00,42.5,28.4,30.08,WSW,249,3.0,12.0,57,0.00,,---,0.00,VWS V14.00,2013-11-08 07:49:00,
2013-11-08 02:54:00,42.5,28.4,30.08,WSW,257,1.0,12.0,57,0.00,,---,0.00,VWS V14.00,2013-11-08 07:54:00,
2013-11-08 02:59:00,42.5,28.4,30.08,SW,226,5.0,12.0,57,0.00,,---,0.00,VWS V14.00,2013-11-08 07:59:00,
2013-11-08 03:00:00,42.6,28.5,30.08,WSW,252,4.0,15.0,57,0.00,,---,0.00,VWS V14.00,2013-11-08 08:00:00,
2013-11-08 03:04:00,42.5,28.8,30.08,WSW,254,4.0,12.0,58,0.00,,---,0.00,VWS V14.00,2013-11-08 08:04:00,
2013-11-08 03:09:00,42.4,28.7,30.08,West,259,6.0,7.0,58,0.00,,---,0.00,VWS V14.00,2013-11-08 08:09:00,
2013-11-08 03:14:00,42.2,28.5,30.08,WSW,250,3.0,7.0,58,0.00,,---,0.00,VWS V14.00,2013-11-08 08:14:00,
2013-11-08 03:19:00,42.1,28.4,30.08,West,259,5.0,7.0,58,0.00,,---,0.00,VWS V14.00,2013-11-08 08:19:00,
2013-11-08 03:24:00,42.1,28.4,30.08,WSW,253,5.0,7.0,58,0.00,,---,0.00,VWS V14.00,2013-11-08 08:24:00,
2013-11-08 03:29:00,42.2,28.5,30.08,WSW,239,7.0,12.0,58,0.00,,---,0.00,VWS V14.00,2013-11-08 08:29:00,
2013-11-08 03:30:00,43.1,28.9,30.10,West,269,11.0,15.0,57,0.00,,---,0.00,VWS V14.00,2013-11-08 08:30:00,
2013-11-08 03:34:00,42.4,28.7,30.08,WSW,257,10.0,15.0,58,0.00,,---,0.00,VWS V14.00,2013-11-08 08:34:00,
2013-11-08 03:39:00,42.6,28.5,30.08,SW,234,6.0,11.0,57,0.00,,---,0.00,VWS V14.00,2013-11-08 08:39:00,
2013-11-08 03:44:00,42.7,28.5,30.08,West,262,7.0,13.0,57,0.00,,---,0.00,VWS V14.00,2013-11-08 08:44:00,
2013-11-08 03:49:00,42.9,28.7,30.08,West,259,2.0,15.0,57,0.00,,---,0.00,VWS V14.00,2013-11-08 08:49:00,
2013-11-08 03:54:00,42.9,28.7,30.08,WSW,257,7.0,15.0,57,0.00,,---,0.00,VWS V14.00,2013-11-08 08:54:00,
2013-11-08 03:59:00,42.8,28.6,30.09,West,261,3.0,15.0,57,0.00,,---,0.00,VWS V14.00,2013-11-08 08:59:00,
2013-11-08 04:00:00,43.1,28.9,30.10,WSW,257,0.0,16.0,57,0.00,,---,0.00,VWS V14.00,2013-11-08 09:00:00,
2013-11-08 04:04:00,42.7,28.5,30.08,West,259,1.0,15.0,57,0.00,,---,0.00,VWS V14.00,2013-11-08 09:04:00,
2013-11-08 04:09:00,42.6,28.9,30.09,West,261,10.0,10.0,58,0.00,,---,0.00,VWS V14.00,2013-11-08 09:09:00,
2013-11-08 04:14:00,42.5,28.8,30.09,WSW,256,6.0,12.0,58,0.00,,---,0.00,VWS V14.00,2013-11-08 09:14:00,
2013-11-08 04:19:00,42.6,28.5,30.10,West,264,9.0,12.0,57,0.00,,---,0.00,VWS V14.00,2013-11-08 09:19:00,
2013-11-08 04:24:00,42.7,28.5,30.10,West,280,5.0,13.0,57,0.00,,---,0.00,VWS V14.00,2013-11-08 09:24:00,
2013-11-08 04:29:00,42.9,28.7,30.10,WSW,237,10.0,15.0,57,0.00,,---,0.00,VWS V14.00,2013-11-08 09:29:00,
2013-11-08 04:30:00,43.4,29.2,30.11,WSW,256,7.0,14.0,57,0.00,,---,0.00,VWS V14.00,2013-11-08 09:30:00,
2013-11-08 04:34:00,43.0,28.8,30.10,West,259,1.0,15.0,57,0.00,,---,0.00,VWS V14.00,2013-11-08 09:34:00,
2013-11-08 04:39:00,43.0,28.8,30.10,West,265,7.0,16.0,57,0.00,,---,0.00,VWS V14.00,2013-11-08 09:39:00,
2013-11-08 04:44:00,43.1,28.5,30.10,West,264,4.0,16.0,56,0.00,,---,0.00,VWS V14.00,2013-11-08 09:44:00,
2013-11-08 04:49:00,43.2,28.6,30.10,West,266,5.0,16.0,56,0.00,,---,0.00,VWS V14.00,2013-11-08 09:49:00,
2013-11-08 04:54:00,43.3,29.1,30.10,WSW,257,4.0,16.0,57,0.00,,---,0.00,VWS V14.00,2013-11-08 09:54:00,
2013-11-08 04:59:00,43.2,29.0,30.10,West,265,5.0,16.0,57,0.00,,---,0.00,VWS V14.00,2013-11-08 09:59:00,
2013-11-08 05:00:00,43.5,28.9,30.11,WSW,252,14.0,17.0,56,0.00,,---,0.00,VWS V14.00,2013-11-08 10:00:00,
2013-11-08 05:04:00,43.1,28.9,30.10,WSW,240,4.0,16.0,57,0.00,,---,0.00,VWS V14.00,2013-11-08 10:04:00,
2013-11-08 05:09:00,43.2,29.0,30.11,WSW,258,2.0,6.0,57,0.00,,---,0.00,VWS V14.00,2013-11-08 10:09:00,
2013-11-08 05:14:00,43.2,29.0,30.11,West,263,3.0,9.0,57,0.00,,---,0.00,VWS V14.00,2013-11-08 10:14:00,
2013-11-08 05:19:00,43.2,29.0,30.11,West,265,5.0,10.0,57,0.00,,---,0.00,VWS V14.00,2013-11-08 10:19:00,
2013-11-08 05:24:00,43.3,29.1,30.11,West,260,2.0,13.0,57,0.00,,---,0.00,VWS V14.00,2013-11-08 10:24:00,
2013-11-08 05:29:00,43.3,29.1,30.11,WSW,245,3.0,13.0,57,0.00,,---,0.00,VWS V14.00,2013-11-08 10:29:00,
2013-11-08 05:30:00,43.2,28.6,30.12,WNW,292,4.0,17.0,56,0.00,,---,0.00,VWS V14.00,2013-11-08 10:30:00,
2013-11-08 05:34:00,43.4,29.2,30.11,WSW,242,2.0,13.0,57,0.00,,---,0.00,VWS V14.00,2013-11-08 10:34:00,
2013-11-08 05:39:00,43.6,29.0,30.11,West,263,12.0,15.0,56,0.00,,---,0.00,VWS V14.00,2013-11-08 10:39:00,
2013-11-08 05:44:00,43.8,29.1,30.11,West,267,7.0,15.0,56,0.00,,---,0.00,VWS V14.00,2013-11-08 10:44:00,
2013-11-08 05:49:00,43.7,29.0,30.11,West,262,9.0,15.0,56,0.00,,---,0.00,VWS V14.00,2013-11-08 10:49:00,
2013-11-08 05:54:00,43.6,29.0,30.11,West,260,9.0,15.0,56,0.00,,---,0.00,VWS V14.00,2013-11-08 10:54:00,
2013-11-08 05:59:00,43.6,29.0,30.11,WSW,248,3.0,15.0,56,0.00,,---,0.00,VWS V14.00,2013-11-08 10:59:00,
2013-11-08 06:04:00,43.5,28.9,30.11,West,266,9.0,15.0,56,0.00,,---,0.00,VWS V14.00,2013-11-08 11:04:00,
2013-11-08 06:09:00,43.6,29.0,30.11,West,269,8.0,17.0,56,0.00,,---,0.00,VWS V14.00,2013-11-08 11:09:00,
2013-11-08 06:14:00,43.8,29.1,30.11,West,259,6.0,17.0,56,0.00,,---,0.00,VWS V14.00,2013-11-08 11:14:00,
2013-11-08 06:19:00,43.7,28.6,30.12,WSW,248,3.0,17.0,55,0.00,,---,0.00,VWS V14.00,2013-11-08 11:19:00,
2013-11-08 06:24:00,43.6,29.0,30.12,WSW,255,4.0,17.0,56,0.00,,---,0.00,VWS V14.00,2013-11-08 11:24:00,
2013-11-08 06:29:00,43.4,28.8,30.12,West,264,5.0,17.0,56,0.00,,---,0.00,VWS V14.00,2013-11-08 11:29:00,
2013-11-08 06:30:00,43.9,30.5,30.15,West,275,0.0,10.0,59,0.00,,---,0.00,VWS V14.00,2013-11-08 11:30:00,
2013-11-08 06:34:00,43.3,28.7,30.12,West,268,5.0,17.0,56,0.00,,---,0.00,VWS V14.00,2013-11-08 11:34:00,
2013-11-08 06:39:00,43.2,29.0,30.12,WSW,254,9.0,14.0,57,0.00,,---,0.00,VWS V14.00,2013-11-08 11:39:00,
2013-11-08 06:44:00,43.3,29.1,30.12,West,261,4.0,14.0,57,0.00,,---,0.00,VWS V14.00,2013-11-08 11:44:00,
2013-11-08 06:49:00,43.2,29.0,30.13,West,271,5.0,14.0,57,0.00,,---,0.00,VWS V14.00,2013-11-08 11:49:00,
2013-11-08 06:54:00,43.2,29.0,30.13,West,259,6.0,14.0,57,0.00,,---,0.00,VWS V14.00,2013-11-08 11:54:00,
2013-11-08 06:59:00,43.1,29.3,30.13,West,267,3.0,14.0,58,0.00,,---,0.00,VWS V14.00,2013-11-08 11:59:00,
2013-11-08 07:00:00,46.0,31.2,30.17,WNW,287,0.0,12.0,56,0.00,,---,0.00,VWS V14.00,2013-11-08 12:00:00,
2013-11-08 07:04:00,42.9,29.2,30.13,WNW,291,4.0,14.0,58,0.00,,---,0.00,VWS V14.00,2013-11-08 12:04:00,
2013-11-08 07:09:00,42.8,29.1,30.13,West,259,0.0,9.0,58,0.00,,---,0.00,VWS V14.00,2013-11-08 12:09:00,
2013-11-08 07:14:00,42.9,29.6,30.14,West,275,0.0,9.0,59,0.00,,---,0.00,VWS V14.00,2013-11-08 12:14:00,
2013-11-08 07:19:00,43.0,29.7,30.14,WSW,252,2.0,9.0,59,0.00,,---,0.00,VWS V14.00,2013-11-08 12:19:00,
2013-11-08 07:24:00,43.2,29.9,30.14,WNW,288,2.0,10.0,59,0.00,,---,0.00,VWS V14.00,2013-11-08 12:24:00,
2013-11-08 07:29:00,43.5,30.1,30.15,West,276,4.0,10.0,59,0.00,,---,0.00,VWS V14.00,2013-11-08 12:29:00,
2013-11-08 07:34:00,43.8,30.4,30.15,West,275,0.0,10.0,59,0.00,,---,0.00,VWS V14.00,2013-11-08 12:34:00,
2013-11-08 07:39:00,44.1,30.3,30.15,West,271,0.0,7.0,58,0.00,,---,0.00,VWS V14.00,2013-11-08 12:39:00,
2013-11-08 07:44:00,44.5,30.7,30.15,WNW,298,0.0,8.0,58,0.00,,---,0.00,VWS V14.00,2013-11-08 12:44:00,
2013-11-08 07:49:00,44.9,31.0,30.16,WNW,301,5.0,8.0,58,0.00,,---,0.00,VWS V14.00,2013-11-08 12:49:00,
2013-11-08 07:54:00,45.2,31.3,30.16,NNW,328,0.0,8.0,58,0.00,,---,0.00,VWS V14.00,2013-11-08 12:54:00,
2013-11-08 07:59:00,45.6,31.3,30.16,NW,322,3.0,8.0,57,0.00,,---,0.00,VWS V14.00,2013-11-08 12:59:00,
2013-11-08 08:00:00,47.9,30.7,30.18,West,281,3.0,16.0,51,0.00,,---,0.00,VWS V14.00,2013-11-08 13:00:00,
2013-11-08 08:04:00,45.8,31.0,30.17,WNW,284,3.0,12.0,56,0.00,,---,0.00,VWS V14.00,2013-11-08 13:04:00,
2013-11-08 08:09:00,46.3,31.5,30.17,West,271,3.0,7.0,56,0.00,,---,0.00,VWS V14.00,2013-11-08 13:09:00,
2013-11-08 08:14:00,46.7,31.4,30.17,WNW,299,5.0,11.0,55,0.00,,---,0.00,VWS V14.00,2013-11-08 13:14:00,
2013-11-08 08:19:00,47.1,31.8,30.17,West,259,10.0,13.0,55,0.00,,---,0.00,VWS V14.00,2013-11-08 13:19:00,
2013-11-08 08:24:00,47.3,31.5,30.18,WNW,287,9.0,15.0,54,0.00,,---,0.00,VWS V14.00,2013-11-08 13:24:00,
2013-11-08 08:29:00,47.3,32.0,30.18,NW,311,5.0,15.0,55,0.00,,---,0.00,VWS V14.00,2013-11-08 13:29:00,
2013-11-08 08:30:00,48.7,32.3,30.19,NW,320,5.0,12.0,53,0.00,,---,0.00,VWS V14.00,2013-11-08 13:30:00,
2013-11-08 08:35:00,47.2,31.0,30.18,West,277,5.0,15.0,53,0.00,,---,0.00,VWS V14.00,2013-11-08 13:35:00,
2013-11-08 08:40:00,47.2,31.4,30.18,WNW,296,7.0,16.0,54,0.00,,---,0.00,VWS V14.00,2013-11-08 13:40:00,
2013-11-08 08:45:00,47.2,31.0,30.18,WSW,253,11.0,16.0,53,0.00,,---,0.00,VWS V14.00,2013-11-08 13:45:00,
2013-11-08 08:50:00,47.3,31.5,30.18,West,274,4.0,16.0,54,0.00,,---,0.00,VWS V14.00,2013-11-08 13:50:00,
2013-11-08 08:55:00,47.5,31.7,30.18,NW,307,0.0,16.0,54,0.00,,---,0.00,VWS V14.00,2013-11-08 13:55:00,
2013-11-08 09:00:00,47.8,31.5,30.18,NW,314,5.0,16.0,53,0.00,,---,0.00,VWS V14.00,2013-11-08 14:00:00,
2013-11-08 09:05:00,47.9,31.1,30.18,West,280,8.0,16.0,52,0.00,,---,0.00,VWS V14.00,2013-11-08 14:05:00,
2013-11-08 09:10:00,48.2,32.3,30.18,NW,304,4.0,7.0,54,0.00,,---,0.00,VWS V14.00,2013-11-08 14:10:00,
2013-11-08 09:15:00,48.6,31.8,30.19,WNW,302,0.0,8.0,52,0.00,,---,0.00,VWS V14.00,2013-11-08 14:15:00,
2013-11-08 09:20:00,48.8,32.4,30.19,West,273,3.0,9.0,53,0.00,,---,0.00,VWS V14.00,2013-11-08 14:20:00,
2013-11-08 09:25:00,48.7,31.4,30.19,WNW,303,2.0,9.0,51,0.00,,---,0.00,VWS V14.00,2013-11-08 14:25:00,
2013-11-08 09:30:00,48.9,31.6,30.19,West,265,6.0,12.0,51,0.00,,---,0.00,VWS V14.00,2013-11-08 14:30:00,
2013-11-08 09:35:00,48.7,32.3,30.19,NW,304,0.0,12.0,53,0.00,,---,0.00,VWS V14.00,2013-11-08 14:35:00,
2013-11-08 09:40:00,48.3,30.5,30.19,NW,309,2.0,8.0,50,0.00,,---,0.00,VWS V14.00,2013-11-08 14:40:00,
2013-11-08 09:45:00,48.1,31.8,30.19,WNW,288,2.0,8.0,53,0.00,,---,0.00,VWS V14.00,2013-11-08 14:45:00,
2013-11-08 09:50:00,47.5,29.3,30.19,NW,307,4.0,12.0,49,0.00,,---,0.00,VWS V14.00,2013-11-08 14:50:00,
2013-11-08 09:55:00,47.4,30.2,30.20,WNW,290,4.0,12.0,51,0.00,,---,0.00,VWS V14.00,2013-11-08 14:55:00,
2013-11-08 10:00:00,47.1,29.9,30.20,NW,314,1.0,12.0,51,0.00,,---,0.00,VWS V14.00,2013-11-08 15:00:00,
2013-11-08 10:05:00,47.0,29.3,30.20,WNW,292,4.0,12.0,50,0.00,,---,0.00,VWS V14.00,2013-11-08 15:05:00,
2013-11-08 10:10:00,47.0,30.3,30.20,NW,319,2.0,10.0,52,0.00,,---,0.00,VWS V14.00,2013-11-08 15:10:00,
2013-11-08 10:15:00,47.1,29.9,30.20,West,268,6.0,14.0,51,0.00,,---,0.00,VWS V14.00,2013-11-08 15:15:00,
2013-11-08 10:20:00,47.2,30.0,30.20,WNW,282,4.0,14.0,51,0.00,,---,0.00,VWS V14.00,2013-11-08 15:20:00,
2013-11-08 10:25:00,47.2,29.5,30.20,West,261,13.0,17.0,50,0.00,,---,0.00,VWS V14.00,2013-11-08 15:25:00,
2013-11-08 10:30:00,47.3,29.6,30.20,WNW,287,6.0,17.0,50,0.00,,---,0.00,VWS V14.00,2013-11-08 15:30:00,
2013-11-08 10:35:00,47.7,30.5,30.20,WNW,291,9.0,17.0,51,0.00,,---,0.00,VWS V14.00,2013-11-08 15:35:00,
2013-11-08 10:40:00,47.9,30.7,30.20,West,276,0.0,13.0,51,0.00,,---,0.00,VWS V14.00,2013-11-08 15:40:00,
2013-11-08 10:45:00,48.3,30.0,30.20,WNW,298,5.0,13.0,49,0.00,,---,0.00,VWS V14.00,2013-11-08 15:45:00,
2013-11-08 10:50:00,48.1,29.4,30.20,WNW,290,5.0,15.0,48,0.00,,---,0.00,VWS V14.00,2013-11-08 15:50:00,
2013-11-08 10:55:00,47.7,29.5,30.20,WNW,296,9.0,18.0,49,0.00,,---,0.00,VWS V14.00,2013-11-08 15:55:00,
2013-11-08 11:00:00,47.6,29.9,30.20,WNW,294,4.0,18.0,50,0.00,,---,0.00,VWS V14.00,2013-11-08 16:00:00,
2013-11-08 11:05:00,47.8,29.6,30.20,West,277,10.0,18.0,49,0.00,,---,0.00,VWS V14.00,2013-11-08 16:05:00,
2013-11-08 11:10:00,48.1,28.8,30.20,WSW,258,6.0,14.0,47,0.00,,---,0.00,VWS V14.00,2013-11-08 16:10:00,
2013-11-08 11:15:00,48.4,29.6,30.21,WNW,298,4.0,18.0,48,0.00,,---,0.00,VWS V14.00,2013-11-08 16:15:00,
2013-11-08 11:20:00,49.0,29.1,30.21,NNW,329,7.0,18.0,46,0.00,,---,0.00,VWS V14.00,2013-11-08 16:20:00,
2013-11-08 11:25:00,49.7,30.3,30.21,WNW,299,11.0,18.0,47,0.00,,---,0.00,VWS V14.00,2013-11-08 16:25:00,
2013-11-08 11:30:00,49.9,29.4,30.21,NW,311,2.0,18.0,45,0.00,,---,0.00,VWS V14.00,2013-11-08 16:30:00,
2013-11-08 11:35:00,49.8,29.3,30.20,WNW,300,13.0,18.0,45,0.00,,---,0.00,VWS V14.00,2013-11-08 16:35:00,
2013-11-08 11:40:00,49.4,29.0,30.21,West,266,10.0,14.0,45,0.00,,---,0.00,VWS V14.00,2013-11-08 16:40:00,
2013-11-08 11:45:00,76.8,73.0,30.27,South,180,3.5,3.5,88,0.00,CLR,,0.00,WeatherDisplay:10.37,2013-11-08 16:45:00,
2013-11-08 11:50:00,48.5,27.6,30.21,West,264,2.0,19.0,44,0.00,,---,0.00,VWS V14.00,2013-11-08 16:50:00,
2013-11-08 11:55:00,48.4,29.6,30.20,NNW,329,0.0,19.0,48,0.00,,---,0.00,VWS V14.00,2013-11-08 16:55:00,
2013-11-08 12:00:00,48.8,29.5,30.20,WNW,302,3.0,21.0,47,0.00,,---,0.00,VWS V14.00,2013-11-08 17:00:00,
2013-11-08 12:05:00,49.6,30.2,30.20,West,267,8.0,21.0,47,0.00,,---,0.00,VWS V14.00,2013-11-08 17:05:00,
2013-11-08 12:10:00,50.2,30.2,30.20,West,275,13.0,21.0,46,0.00,,---,0.00,VWS V14.00,2013-11-08 17:10:00,
2013-11-08 12:15:00,50.5,28.9,30.20,NW,307,16.0,22.0,43,0.00,,---,0.00,VWS V14.00,2013-11-08 17:15:00,
2013-11-08 12:20:00,50.1,29.6,30.20,West,268,9.0,22.0,45,0.00,,---,0.00,VWS V14.00,2013-11-08 17:20:00,
2013-11-08 12:25:00,50.8,30.8,30.19,WSW,255,6.0,22.0,46,0.00,,---,0.00,VWS V14.00,2013-11-08 17:25:00,
2013-11-08 12:30:00,50.3,28.7,30.20,West,266,12.0,22.0,43,0.00,,---,0.00,VWS V14.00,2013-11-08 17:30:00,
2013-11-08 12:35:00,49.5,28.5,30.20,NW,316,4.0,22.0,44,0.00,,---,0.00,VWS V14.00,2013-11-08 17:35:00,
2013-11-08 12:40:00,49.2,28.8,30.20,West,271,7.0,12.0,45,0.00,,---,0.00,VWS V14.00,2013-11-08 17:40:00,
2013-11-08 12:45:00,48.8,28.4,30.20,WNW,296,2.0,14.0,45,0.00,,---,0.00,VWS V14.00,2013-11-08 17:45:00,
2013-11-08 12:50:00,48.6,28.2,30.20,SSW,211,5.0,16.0,45,0.00,,---,0.00,VWS V14.00,2013-11-08 17:50:00,
2013-11-08 12:55:00,48.3,28.5,30.20,West,275,8.0,25.0,46,0.00,,---,0.00,VWS V14.00,2013-11-08 17:55:00,
2013-11-08 13:00:00,47.9,27.6,30.20,West,273,7.0,25.0,45,0.00,,---,0.00,VWS V14.00,2013-11-08 18:00:00,
2013-11-08 13:05:00,47.8,27.5,30.20,WNW,295,7.0,25.0,45,0.00,,---,0.00,VWS V14.00,2013-11-08 18:05:00,
2013-11-08 13:10:00,47.9,28.1,30.20,WNW,294,0.0,18.0,46,0.00,,---,0.00,VWS V14.00,2013-11-08 18:10:00,
2013-11-08 13:15:00,48.2,28.4,30.20,West,264,5.0,18.0,46,0.00,,---,0.00,VWS V14.00,2013-11-08 18:15:00,
2013-11-08 13:20:00,48.4,28.0,30.20,West,263,6.0,18.0,45,0.00,,---,0.00,VWS V14.00,2013-11-08 18:20:00,
2013-11-08 13:25:00,48.3,28.5,30.20,West,281,3.0,18.0,46,0.00,,---,0.00,VWS V14.00,2013-11-08 18:25:00,
2013-11-08 13:30:00,48.7,28.9,30.20,West,276,4.0,18.0,46,0.00,,---,0.00,VWS V14.00,2013-11-08 18:30:00,
2013-11-08 13:35:00,48.7,28.3,30.20,WSW,257,3.0,18.0,45,0.00,,---,0.00,VWS V14.00,2013-11-08 18:35:00,
2013-11-08 13:40:00,49.0,29.7,30.20,WNW,293,2.0,13.0,47,0.00,,---,0.00,VWS V14.00,2013-11-08 18:40:00,
2013-11-08 13:45:00,49.2,29.3,30.20,NNW,330,3.0,13.0,46,0.00,,---,0.00,VWS V14.00,2013-11-08 18:45:00,
2013-11-08 13:50:00,49.9,30.5,30.19,NW,308,6.0,13.0,47,0.00,,---,0.00,VWS V14.00,2013-11-08 18:50:00,
2013-11-08 13:55:00,50.7,30.7,30.20,NNW,329,6.0,13.0,46,0.00,,---,0.00,VWS V14.00,2013-11-08 18:55:00,
2013-11-08 14:00:00,51.1,30.0,30.19,NW,304,3.0,13.0,44,0.00,,---,0.00,VWS V14.00,2013-11-08 19:00:00,
2013-11-08 14:05:00,51.3,29.6,30.19,West,268,7.0,15.0,43,0.00,,---,0.00,VWS V14.00,2013-11-08 19:05:00,
2013-11-08 14:10:00,50.6,29.5,30.19,WNW,283,2.0,19.0,44,0.00,,---,0.00,VWS V14.00,2013-11-08 19:10:00,
2013-11-08 14:15:00,50.7,29.0,30.19,West,276,3.0,19.0,43,0.00,,---,0.00,VWS V14.00,2013-11-08 19:15:00,
2013-11-08 14:20:00,50.9,29.2,30.19,West,263,7.0,19.0,43,0.00,,---,0.00,VWS V14.00,2013-11-08 19:20:00,
2013-11-08 14:25:00,51.1,28.2,30.19,NNW,336,5.0,19.0,41,0.00,,---,0.00,VWS V14.00,2013-11-08 19:25:00,
2013-11-08 14:30:00,51.0,28.1,30.20,WNW,287,7.0,19.0,41,0.00,,---,0.00,VWS V14.00,2013-11-08 19:30:00,
2013-11-08 14:35:00,51.1,29.4,30.20,West,259,3.0,19.0,43,0.00,,---,0.00,VWS V14.00,2013-11-08 19:35:00,
2013-11-08 14:40:00,50.9,28.6,30.20,West,273,11.0,23.0,42,0.00,,---,0.00,VWS V14.00,2013-11-08 19:40:00,
2013-11-08 14:45:00,50.6,27.8,30.20,West,265,12.0,23.0,41,0.00,,---,0.00,VWS V14.00,2013-11-08 19:45:00,
2013-11-08 14:50:00,50.5,28.3,30.20,West,263,12.0,23.0,42,0.00,,---,0.00,VWS V14.00,2013-11-08 19:50:00,
2013-11-08 14:55:00,50.5,27.7,30.20,West,278,9.0,23.0,41,0.00,,---,0.00,VWS V14.00,2013-11-08 19:55:00,
2013-11-08 15:00:00,50.5,27.7,30.20,WSW,244,9.0,23.0,41,0.00,,---,0.00,VWS V14.00,2013-11-08 20:00:00,
2013-11-08 15:05:00,50.2,27.4,30.20,West,268,6.0,23.0,41,0.00,,---,0.00,VWS V14.00,2013-11-08 20:05:00,
2013-11-08 15:10:00,50.3,28.1,30.20,WNW,286,6.0,17.0,42,0.00,,---,0.00,VWS V14.00,2013-11-08 20:10:00,
2013-11-08 15:15:00,50.3,28.1,30.20,WSW,257,6.0,17.0,42,0.00,,---,0.00,VWS V14.00,2013-11-08 20:15:00,
2013-11-08 15:20:00,50.4,27.6,30.20,West,267,5.0,17.0,41,0.00,,---,0.00,VWS V14.00,2013-11-08 20:20:00,
2013-11-08 15:25:00,50.4,28.2,30.20,WNW,296,5.0,17.0,42,0.00,,---,0.00,VWS V14.00,2013-11-08 20:25:00,
2013-11-08 15:30:00,50.4,28.2,30.20,WNW,302,4.0,17.0,42,0.00,,---,0.00,VWS V14.00,2013-11-08 20:30:00,
2013-11-08 15:35:00,50.3,28.1,30.21,West,264,5.0,17.0,42,0.00,,---,0.00,VWS V14.00,2013-11-08 20:35:00,
2013-11-08 15:41:00,50.1,27.3,30.21,West,269,3.0,15.0,41,0.00,,---,0.00,VWS V14.00,2013-11-08 20:41:00,
2013-11-08 15:46:00,49.7,27.0,30.21,West,270,10.0,15.0,41,0.00,,---,0.00,VWS V14.00,2013-11-08 20:46:00,
2013-11-08 15:51:00,49.1,27.0,30.21,West,265,7.0,17.0,42,0.00,,---,0.00,VWS V14.00,2013-11-08 20:51:00,
2013-11-08 15:56:00,48.7,26.6,30.21,West,267,7.0,17.0,42,0.00,,---,0.00,VWS V14.00,2013-11-08 20:56:00,
2013-11-08 16:00:00,46.4,26.8,30.23,WNW,290,0.0,12.0,46,0.00,,---,0.00,VWS V14.00,2013-11-08 21:00:00,
2013-11-08 16:01:00,48.5,27.0,30.21,WSW,254,5.0,17.0,43,0.00,,---,0.00,VWS V14.00,2013-11-08 21:01:00,
2013-11-08 16:06:00,48.4,26.4,30.22,West,259,7.0,17.0,42,0.00,,---,0.00,VWS V14.00,2013-11-08 21:06:00,
2013-11-08 16:11:00,48.2,26.8,30.22,WNW,292,4.0,10.0,43,0.00,,---,0.00,VWS V14.00,2013-11-08 21:11:00,
2013-11-08 16:16:00,48.0,27.1,30.22,WSW,255,7.0,10.0,44,0.00,,---,0.00,VWS V14.00,2013-11-08 21:16:00,
2013-11-08 16:21:00,48.0,27.1,30.22,WNW,286,5.0,10.0,44,0.00,,---,0.00,VWS V14.00,2013-11-08 21:21:00,
2013-11-08 16:26:00,48.0,27.1,30.22,WNW,292,2.0,10.0,44,0.00,,---,0.00,VWS V14.00,2013-11-08 21:26:00,
2013-11-08 16:31:00,47.9,27.0,30.22,WNW,290,3.0,10.0,44,0.00,,---,0.00,VWS V14.00,2013-11-08 21:31:00,
2013-11-08 16:36:00,47.8,26.4,30.22,WNW,284,10.0,16.0,43,0.00,,---,0.00,VWS V14.00,2013-11-08 21:36:00,
2013-11-08 16:41:00,47.7,26.3,30.22,WNW,295,6.0,12.0,43,0.00,,---,0.00,VWS V14.00,2013-11-08 21:41:00,
2013-11-08 16:46:00,47.6,26.2,30.22,WNW,293,2.0,12.0,43,0.00,,---,0.00,VWS V14.00,2013-11-08 21:46:00,
2013-11-08 16:51:00,47.3,26.5,30.22,West,278,1.0,12.0,44,0.00,,---,0.00,VWS V14.00,2013-11-08 21:51:00,
2013-11-08 16:56:00,47.0,26.8,30.22,WNW,287,1.0,12.0,45,0.00,,---,0.00,VWS V14.00,2013-11-08 21:56:00,
2013-11-08 17:01:00,46.8,26.6,30.23,WNW,290,0.0,12.0,45,0.00,,---,0.00,VWS V14.00,2013-11-08 22:01:00,
2013-11-08 17:06:00,46.5,26.9,30.23,WNW,290,0.0,12.0,46,0.00,,---,0.00,VWS V14.00,2013-11-08 22:06:00,
2013-11-08 17:11:00,46.1,26.5,30.23,WNW,290,0.0,0.0,46,0.00,,---,0.00,VWS V14.00,2013-11-08 22:11:00,
2013-11-08 17:16:00,46.0,26.4,30.23,WNW,290,0.0,0.0,46,0.00,,---,0.00,VWS V14.00,2013-11-08 22:16:00,
2013-11-08 17:21:00,45.8,26.2,30.23,WNW,290,0.0,0.0,46,0.00,,---,0.00,VWS V14.00,2013-11-08 22:21:00,
2013-11-08 17:26:00,45.5,26.5,30.24,WNW,290,0.0,0.0,47,0.00,,---,0.00,VWS V14.00,2013-11-08 22:26:00,
2013-11-08 17:31:00,45.1,26.1,30.24,WNW,290,0.0,0.0,47,0.00,,---,0.00,VWS V14.00,2013-11-08 22:31:00,
2013-11-08 17:36:00,44.8,26.3,30.24,WNW,290,0.0,0.0,48,0.00,,---,0.00,VWS V14.00,2013-11-08 22:36:00,
2013-11-08 17:41:00,44.5,26.0,30.24,WNW,290,0.0,0.0,48,0.00,,---,0.00,VWS V14.00,2013-11-08 22:41:00,
2013-11-08 17:46:00,44.2,26.3,30.24,WNW,290,0.0,0.0,49,0.00,,---,0.00,VWS V14.00,2013-11-08 22:46:00,
2013-11-08 17:51:00,44.0,26.1,30.25,WNW,290,0.0,0.0,49,0.00,,---,0.00,VWS V14.00,2013-11-08 22:51:00,
2013-11-08 17:56:00,43.8,25.9,30.24,WNW,290,0.0,0.0,49,0.00,,---,0.00,VWS V14.00,2013-11-08 22:56:00,
2013-11-08 18:00:00,41.3,25.9,30.27,WNW,292,0.0,2.0,54,0.00,,---,0.00,VWS V14.00,2013-11-08 23:00:00,
2013-11-08 18:01:00,43.6,26.2,30.25,WNW,290,0.0,0.0,50,0.00,,---,0.00,VWS V14.00,2013-11-08 23:01:00,
2013-11-08 18:06:00,43.4,26.0,30.25,WNW,290,0.0,0.0,50,0.00,,---,0.00,VWS V14.00,2013-11-08 23:06:00,
2013-11-08 18:11:00,43.3,25.9,30.25,WNW,290,0.0,0.0,50,0.00,,---,0.00,VWS V14.00,2013-11-08 23:11:00,
2013-11-08 18:16:00,43.1,26.2,30.25,WNW,290,3.0,3.0,51,0.00,,---,0.00,VWS V14.00,2013-11-08 23:16:00,
2013-11-08 18:21:00,42.9,26.0,30.25,WNW,290,1.0,3.0,51,0.00,,---,0.00,VWS V14.00,2013-11-08 23:21:00,
2013-11-08 18:26:00,42.6,26.2,30.25,WNW,290,0.0,3.0,52,0.00,,---,0.00,VWS V14.00,2013-11-08 23:26:00,
2013-11-08 18:31:00,42.4,26.0,30.26,WNW,291,0.0,3.0,52,0.00,,---,0.00,VWS V14.00,2013-11-08 23:31:00,
2013-11-08 18:36:00,42.2,26.3,30.26,WNW,291,0.0,3.0,53,0.00,,---,0.00,VWS V14.00,2013-11-08 23:36:00,
2013-11-08 18:41:00,42.0,26.1,30.26,WNW,293,0.0,2.0,53,0.00,,---,0.00,VWS V14.00,2013-11-08 23:41:00,
2013-11-08 18:46:00,41.9,26.0,30.26,WNW,293,0.0,2.0,53,0.00,,---,0.00,VWS V14.00,2013-11-08 23:46:00,
2013-11-08 18:51:00,41.7,25.9,30.26,WNW,293,0.0,2.0,53,0.00,,---,0.00,VWS V14.00,2013-11-08 23:51:00,
2013-11-08 18:56:00,41.6,26.2,30.26,WNW,293,0.0,2.0,54,0.00,,---,0.00,VWS V14.00,2013-11-08 23:56:00,
2013-11-08 19:00:00,40.4,26.4,30.27,NW,325,0.0,3.0,57,0.00,,---,0.00,VWS V14.00,2013-11-09 00:00:00,
2013-11-08 19:01:00,41.5,26.1,30.27,WNW,293,0.0,2.0,54,0.00,,---,0.00,VWS V14.00,2013-11-09 00:01:00,
2013-11-08 19:06:00,41.3,25.9,30.27,WNW,292,0.0,2.0,54,0.00,,---,0.00,VWS V14.00,2013-11-09 00:06:00,
2013-11-08 19:11:00,41.2,26.3,30.27,WNW,293,0.0,0.0,55,0.00,,---,0.00,VWS V14.00,2013-11-09 00:11:00,
2013-11-08 19:16:00,41.0,27.0,30.27,WNW,292,0.0,0.0,57,0.00,,---,0.00,VWS V14.00,2013-11-09 00:16:00,
2013-11-08 19:21:00,40.6,26.6,30.27,WNW,292,0.0,0.0,57,0.00,,---,0.00,VWS V14.00,2013-11-09 00:21:00,
2013-11-08 19:26:00,40.3,26.7,30.27,WNW,292,0.0,2.0,58,0.00,,---,0.00,VWS V14.00,2013-11-09 00:26:00,
2013-11-08 19:30:00,38.6,26.3,30.28,NW,325,0.0,0.0,61,0.00,,---,0.00,VWS V14.00,2013-11-09 00:30:00,
2013-11-08 19:31:00,39.8,26.2,30.27,WNW,292,0.0,2.0,58,0.00,,---,0.00,VWS V14.00,2013-11-09 00:31:00,
2013-11-08 19:36:00,39.3,26.2,30.27,WNW,292,0.0,0.0,59,0.00,,---,0.00,VWS V14.00,2013-11-09 00:36:00,
2013-11-08 19:41:00,39.1,26.0,30.27,WNW,295,0.0,0.0,59,0.00,,---,0.00,VWS V14.00,2013-11-09 00:41:00,
2013-11-08 19:46:00,39.1,26.0,30.27,WNW,295,0.0,0.0,59,0.00,,---,0.00,VWS V14.00,2013-11-09 00:46:00,
2013-11-08 19:51:00,39.0,26.3,30.27,WNW,295,0.0,0.0,60,0.00,,---,0.00,VWS V14.00,2013-11-09 00:51:00,
2013-11-08 19:56:00,39.2,26.1,30.27,WNW,295,0.0,0.0,59,0.00,,---,0.00,VWS V14.00,2013-11-09 00:56:00,
2013-11-08 20:01:00,39.8,26.2,30.27,NW,323,0.0,3.0,58,0.00,,---,0.00,VWS V14.00,2013-11-09 01:01:00,
2013-11-08 20:06:00,40.4,26.4,30.27,NW,325,0.0,0.0,57,0.00,,---,0.00,VWS V14.00,2013-11-09 01:06:00,
2013-11-08 20:11:00,40.5,26.0,30.28,NW,325,0.0,0.0,56,0.00,,---,0.00,VWS V14.00,2013-11-09 01:11:00,
2013-11-08 20:16:00,40.4,26.8,30.28,NW,325,0.0,0.0,58,0.00,,---,0.00,VWS V14.00,2013-11-09 01:16:00,
2013-11-08 20:21:00,40.1,26.5,30.28,NW,325,0.0,0.0,58,0.00,,---,0.00,VWS V14.00,2013-11-09 01:21:00,
2013-11-08 20:26:00,39.7,26.6,30.28,NW,325,0.0,0.0,59,0.00,,---,0.00,VWS V14.00,2013-11-09 01:26:00,
2013-11-08 20:30:00,36.7,26.1,30.30,NW,325,0.0,0.0,65,0.00,,---,0.00,VWS V14.00,2013-11-09 01:30:00,
2013-11-08 20:31:00,39.1,26.0,30.28,NW,325,0.0,0.0,59,0.00,,---,0.00,VWS V14.00,2013-11-09 01:31:00,
2013-11-08 20:36:00,38.6,26.3,30.28,NW,325,0.0,0.0,61,0.00,,---,0.00,VWS V14.00,2013-11-09 01:36:00,
2013-11-08 20:41:00,38.2,26.3,30.29,NW,325,0.0,0.0,62,0.00,,---,0.00,VWS V14.00,2013-11-09 01:41:00,
2013-11-08 20:46:00,37.9,26.5,30.29,NW,325,0.0,0.0,63,0.00,,---,0.00,VWS V14.00,2013-11-09 01:46:00,
2013-11-08 20:51:00,37.7,25.9,30.29,NW,325,0.0,0.0,62,0.00,,---,0.00,VWS V14.00,2013-11-09 01:51:00,
2013-11-08 20:56:00,37.5,26.1,30.29,NW,325,0.0,0.0,63,0.00,,---,0.00,VWS V14.00,2013-11-09 01:56:00,
2013-11-08 21:00:00,35.0,25.5,30.31,NW,325,0.0,0.0,68,0.00,,---,0.00,VWS V14.00,2013-11-09 02:00:00,
2013-11-08 21:01:00,37.4,26.0,30.29,NW,325,1.0,1.0,63,0.00,,---,0.00,VWS V14.00,2013-11-09 02:01:00,
2013-11-08 21:06:00,37.4,26.0,30.29,NW,325,0.0,0.0,63,0.00,,---,0.00,VWS V14.00,2013-11-09 02:06:00,
2013-11-08 21:11:00,37.3,26.3,30.29,NW,325,0.0,0.0,64,0.00,,---,0.00,VWS V14.00,2013-11-09 02:11:00,
2013-11-08 21:16:00,37.2,26.2,30.29,NW,325,0.0,0.0,64,0.00,,---,0.00,VWS V14.00,2013-11-09 02:16:00,
2013-11-08 21:21:00,37.1,25.7,30.30,NW,325,0.0,0.0,63,0.00,,---,0.00,VWS V14.00,2013-11-09 02:21:00,
2013-11-08 21:26:00,37.0,26.0,30.30,NW,325,0.0,0.0,64,0.00,,---,0.00,VWS V14.00,2013-11-09 02:26:00,
2013-11-08 21:30:00,33.7,25.3,30.30,NW,325,0.0,0.0,71,0.00,,---,0.00,VWS V14.00,2013-11-09 02:30:00,
2013-11-08 21:31:00,36.9,25.9,30.30,NW,325,0.0,0.0,64,0.00,,---,0.00,VWS V14.00,2013-11-09 02:31:00,
2013-11-08 21:36:00,36.7,26.1,30.30,NW,325,0.0,0.0,65,0.00,,---,0.00,VWS V14.00,2013-11-09 02:36:00,
2013-11-08 21:41:00,36.4,26.1,30.30,NW,325,0.0,0.0,66,0.00,,---,0.00,VWS V14.00,2013-11-09 02:41:00,
2013-11-08 21:46:00,36.0,25.8,30.30,NW,325,0.0,0.0,66,0.00,,---,0.00,VWS V14.00,2013-11-09 02:46:00,
2013-11-08 21:51:00,35.8,25.6,30.31,NW,325,0.0,0.0,66,0.00,,---,0.00,VWS V14.00,2013-11-09 02:51:00,
2013-11-08 21:56:00,35.5,25.6,30.31,NW,325,0.0,0.0,67,0.00,,---,0.00,VWS V14.00,2013-11-09 02:56:00,
2013-11-08 22:01:00,35.2,25.7,30.31,NW,325,0.0,0.0,68,0.00,,---,0.00,VWS V14.00,2013-11-09 03:01:00,
2013-11-08 22:06:00,35.0,25.5,30.31,NW,325,0.0,0.0,68,0.00,,---,0.00,VWS V14.00,2013-11-09 03:06:00,
2013-11-08 22:11:00,34.8,25.7,30.31,NW,325,0.0,0.0,69,0.00,,---,0.00,VWS V14.00,2013-11-09 03:11:00,
2013-11-08 22:16:00,34.5,25.4,30.30,NW,325,0.0,0.0,69,0.00,,---,0.00,VWS V14.00,2013-11-09 03:16:00,
2013-11-08 22:21:00,34.4,25.3,30.30,NW,325,0.0,0.0,69,0.00,,---,0.00,VWS V14.00,2013-11-09 03:21:00,
2013-11-08 22:26:00,34.2,25.1,30.31,NW,325,0.0,0.0,69,0.00,,---,0.00,VWS V14.00,2013-11-09 03:26:00,
2013-11-08 22:31:00,33.8,25.1,30.31,NW,325,0.0,0.0,70,0.00,,---,0.00,VWS V14.00,2013-11-09 03:31:00,
2013-11-08 22:36:00,33.7,25.3,30.31,NW,325,0.0,0.0,71,0.00,,---,0.00,VWS V14.00,2013-11-09 03:36:00,
2013-11-08 22:41:00,33.6,25.2,30.31,NW,325,0.0,0.0,71,0.00,,---,0.00,VWS V14.00,2013-11-09 03:41:00,
2013-11-08 22:47:00,33.4,25.0,30.31,NW,325,0.0,0.0,71,0.00,,---,0.00,VWS V14.00,2013-11-09 03:47:00,
2013-11-08 22:52:00,33.1,25.1,30.31,NW,325,0.0,0.0,72,0.00,,---,0.00,VWS V14.00,2013-11-09 03:52:00,
2013-11-08 22:57:00,33.0,25.3,30.31,NW,325,0.0,0.0,73,0.00,,---,0.00,VWS V14.00,2013-11-09 03:57:00,
2013-11-08 23:00:00,31.5,25.1,30.31,NW,325,0.0,0.0,77,0.00,,---,0.00,VWS V14.00,2013-11-09 04:00:00,
2013-11-08 23:02:00,32.9,25.2,30.31,NW,325,0.0,0.0,73,0.00,,---,0.00,VWS V14.00,2013-11-09 04:02:00,
2013-11-08 23:07:00,32.9,25.2,30.31,NW,325,0.0,0.0,73,0.00,,---,0.00,VWS V14.00,2013-11-09 04:07:00,
2013-11-08 23:12:00,32.8,25.1,30.31,NW,325,0.0,0.0,73,0.00,,---,0.00,VWS V14.00,2013-11-09 04:12:00,
2013-11-08 23:17:00,32.9,25.5,30.31,NW,325,0.0,0.0,74,0.00,,---,0.00,VWS V14.00,2013-11-09 04:17:00,
2013-11-08 23:22:00,33.0,25.6,30.31,NW,325,0.0,0.0,74,0.00,,---,0.00,VWS V14.00,2013-11-09 04:22:00,
2013-11-08 23:27:00,32.9,25.5,30.31,NW,325,0.0,0.0,74,0.00,,---,0.00,VWS V14.00,2013-11-09 04:27:00,
2013-11-08 23:30:00,31.0,25.0,30.32,NW,325,0.0,0.0,78,0.00,,---,0.00,VWS V14.00,2013-11-09 04:30:00,
2013-11-08 23:32:00,32.7,25.3,30.31,NW,325,0.0,0.0,74,0.00,,---,0.00,VWS V14.00,2013-11-09 04:32:00,
2013-11-08 23:37:00,32.6,25.2,30.31,NW,325,0.0,0.0,74,0.00,,---,0.00,VWS V14.00,2013-11-09 04:37:00,
2013-11-08 23:42:00,32.3,25.0,30.31,NW,325,0.0,0.0,74,0.00,,---,0.00,VWS V14.00,2013-11-09 04:42:00,
2013-11-08 23:47:00,32.1,25.1,30.31,NW,325,0.0,0.0,75,0.00,,---,0.00,VWS V14.00,2013-11-09 04:47:00,
2013-11-08 23:52:00,32.0,25.0,30.31,NW,325,0.0,0.0,75,0.00,,---,0.00,VWS V14.00,2013-11-09 04:52:00,
2013-11-08 23:57:00,31.8,25.1,30.31,NW,325,0.0,0.0,76,0.00,,---,0.00,VWS V14.00,2013-11-09 04:57:00,